Trinity Center, CA

2:47 AM PDT on August 18, 2017 (GMT -0700)
Trinity Center

Weather History for KO86 - April, 2013

Change the Weather History Date:

Tuesday, April 9, 2013

  Actual Average (KMHS) Record (KMHS)
Temperature  
Mean Temperature 50 °F -  
Max Temperature 68 °F 52 °F 81 °F (1989)
Min Temperature 32 °F 31 °F 14 °F (1929)
Degree Days  
Heating Degree Days 15    
Moisture  
Dew Point 32 °F    
Average Humidity 58    
Maximum Humidity 93    
Minimum Humidity 22    
Precipitation  
Precipitation 0.00 in - - ()
Sea Level Pressure  
Sea Level Pressure 30.24 in    
Wind  
Wind Speed 6 mph (NW)    
Max Wind Speed 15 mph    
Max Gust Speed 25 mph    
Visibility 10 miles    
Events      
Averages and records for this station are not official NWS values.
T = Trace of Precipitation, MM = Missing Value Source: NWS Daily Summary

Daily Weather History Graph

Daily Weather History Graph

Search for Another Location

Airport or City:

Trip Planner

Search our weather history database for the weather conditions in past years. The results will help you decide how hot, cold, wet, or windy it might be!

Date:

Astronomy

Apr. 09, 2013 Rise Set
Actual Time 6:40 AM PDT 7:44 PM PDT
Civil Twilight 6:12 AM PDT 8:12 PM PDT
Nautical Twilight 5:38 AM PDT 8:46 PM PDT
Astronomical Twilight 5:03 AM PDT 9:21 PM PDT
Moon 6:06 AM PDT (4/9) 7:25 PM PDT (4/9)
Length of Visible Light 14h 00m
Length of Day
13h 04m
Waning Crescent, 0% of the Moon is Illuminated
Apr 9
Waning Crescent
Apr 10
New
Apr 18
First Quarter
Apr 25
Full
May 2
Last Quarter

Hourly Weather History & Observations

Time (PDT) Temp. Windchill Dew Point Humidity Pressure Visibility Wind Dir Wind Speed Gust Speed Precip Events Conditions
12:10 AM 39.2 °F 34.2 °F 30.2 °F 70% 30.21 in 10.0 mi West 6.9 mph - N/A   Clear
12:30 AM 39.2 °F 34.2 °F 28.4 °F 65% 30.21 in 10.0 mi West 6.9 mph - N/A   Clear
12:50 AM 37.4 °F 31.4 °F 28.4 °F 70% 30.21 in 10.0 mi West 8.1 mph - N/A   Clear
1:10 AM 37.4 °F 32.1 °F 28.4 °F 70% 30.22 in 10.0 mi West 6.9 mph - N/A   Clear
1:30 AM 37.4 °F 30.8 °F 28.4 °F 70% 30.22 in 10.0 mi West 9.2 mph - N/A   Clear
1:50 AM 37.4 °F 32.8 °F 28.4 °F 70% 30.22 in 10.0 mi West 5.8 mph - N/A   Clear
2:10 AM 37.4 °F 31.4 °F 28.4 °F 70% 30.22 in 10.0 mi West 8.1 mph - N/A   Clear
2:30 AM 37.4 °F 31.4 °F 28.4 °F 70% 30.23 in 10.0 mi West 8.1 mph - N/A   Clear
2:50 AM 37.4 °F 32.8 °F 28.4 °F 70% 30.23 in 10.0 mi West 5.8 mph - N/A   Clear
3:10 AM 35.6 °F 31.7 °F 28.4 °F 75% 30.22 in 10.0 mi WSW 4.6 mph - N/A   Clear
3:30 AM 35.6 °F - 28.4 °F 75% 30.22 in 10.0 mi Calm Calm - N/A   Clear
3:50 AM 33.8 °F 28.6 °F 30.2 °F 87% 30.22 in 10.0 mi West 5.8 mph - N/A   Clear
4:10 AM 33.8 °F 29.6 °F 30.2 °F 87% 30.22 in 10.0 mi West 4.6 mph - N/A   Clear
4:30 AM 32.0 °F - 28.4 °F 87% 30.23 in 10.0 mi Calm Calm - N/A   Clear
4:50 AM 32.0 °F 27.5 °F 28.4 °F 87% 30.23 in 10.0 mi West 4.6 mph - N/A   Clear
5:10 AM 32.0 °F 27.5 °F 30.2 °F 93% 30.24 in 10.0 mi WNW 4.6 mph - N/A   Clear
5:30 AM 32.0 °F 28.7 °F 28.4 °F 87% 30.24 in 10.0 mi West 3.5 mph - N/A   Clear
5:50 AM 32.0 °F 27.5 °F 28.4 °F 87% 30.25 in 10.0 mi West 4.6 mph - N/A   Clear
6:10 AM 32.0 °F 27.5 °F 28.4 °F 87% 30.25 in 10.0 mi West 4.6 mph - N/A   Clear
6:30 AM 32.0 °F 28.7 °F 28.4 °F 87% 30.26 in 10.0 mi WNW 3.5 mph - N/A   Clear
6:50 AM 32.0 °F 28.7 °F 28.4 °F 87% 30.26 in 10.0 mi West 3.5 mph - N/A   Clear
7:10 AM 32.0 °F - 28.4 °F 87% 30.27 in 10.0 mi Calm Calm - N/A   Clear
7:30 AM 32.0 °F - 30.2 °F 93% 30.27 in 10.0 mi Calm Calm - N/A   Clear
7:50 AM 33.8 °F - 30.2 °F 87% 30.28 in 7.0 mi Calm Calm - N/A   Partly Cloudy
8:10 AM 37.4 °F - 32.0 °F 81% 30.28 in 10.0 mi Calm Calm - N/A   Clear
8:30 AM 39.2 °F 37.0 °F 33.8 °F 81% 30.28 in 10.0 mi SE 3.5 mph - N/A   Clear
8:50 AM 41.0 °F - 33.8 °F 76% 30.28 in 10.0 mi Calm Calm - N/A   Clear
9:10 AM 41.0 °F - 35.6 °F 81% 30.27 in 10.0 mi Calm Calm - N/A   Clear
9:30 AM 44.6 °F 42.2 °F 35.6 °F 71% 30.27 in 10.0 mi East 4.6 mph - N/A   Clear
9:50 AM 46.4 °F 44.3 °F 33.8 °F 62% 30.26 in 10.0 mi SE 4.6 mph - N/A   Clear
10:10 AM 48.2 °F - 32.0 °F 54% 30.26 in 10.0 mi East 3.5 mph - N/A   Clear
10:30 AM 50.0 °F - 32.0 °F 50% 30.26 in 10.0 mi SSE 4.6 mph - N/A   Clear
10:50 AM 53.6 °F - 28.4 °F 38% 30.26 in 10.0 mi SSE 3.5 mph - N/A   Clear
11:10 AM 55.4 °F - 28.4 °F 36% 30.25 in 10.0 mi SE 3.5 mph - N/A   Clear
11:30 AM 55.4 °F - 28.4 °F 36% 30.25 in 8.0 mi SE 3.5 mph - N/A   Clear
11:50 AM 57.2 °F - 26.6 °F 31% 30.25 in 9.0 mi SSE 3.5 mph - N/A   Clear
12:10 PM 59.0 °F - 24.8 °F 27% 30.25 in 8.0 mi ESE 4.6 mph - N/A   Clear
12:30 PM 59.0 °F - 24.8 °F 27% 30.25 in 10.0 mi Calm Calm - N/A   Clear
12:50 PM 62.6 °F - 26.6 °F 26% 30.24 in 10.0 mi NE 11.5 mph 19.6 mph N/A   Mostly Cloudy
1:10 PM 62.6 °F - 23.0 °F 22% 30.24 in 10.0 mi NNE 12.7 mph 25.3 mph N/A   Partly Cloudy
1:30 PM 62.6 °F - 24.8 °F 24% 30.23 in 10.0 mi NNE 10.4 mph 17.3 mph N/A   Clear
1:50 PM 64.4 °F - 24.8 °F 22% 30.22 in 10.0 mi North 9.2 mph 17.3 mph N/A   Clear
2:10 PM 64.4 °F - 24.8 °F 22% 30.22 in 10.0 mi North 11.5 mph 18.4 mph N/A   Clear
2:30 PM 64.4 °F - 26.6 °F 24% 30.22 in 10.0 mi NNE 15.0 mph 23.0 mph N/A   Clear
2:50 PM 64.4 °F - 26.6 °F 24% 30.22 in 10.0 mi NNE 15.0 mph 25.3 mph N/A   Clear
3:10 PM 66.2 °F - 32.0 °F 28% 30.21 in 10.0 mi NNE 10.4 mph 20.7 mph N/A   Clear
3:30 PM 66.2 °F - 32.0 °F 28% 30.21 in 10.0 mi NNE 11.5 mph 21.9 mph N/A   Clear
3:50 PM 66.2 °F - 32.0 °F 28% 30.21 in 10.0 mi North 8.1 mph 19.6 mph N/A   Clear
4:10 PM 68.0 °F - 33.8 °F 28% 30.20 in 10.0 mi NNE 10.4 mph 17.3 mph N/A   Clear
4:30 PM 68.0 °F - 32.0 °F 26% 30.20 in 10.0 mi NNE 12.7 mph 24.2 mph N/A   Clear
4:50 PM 68.0 °F - 33.8 °F 28% 30.20 in 10.0 mi NE 11.5 mph 20.7 mph N/A   Clear
5:10 PM 68.0 °F - 33.8 °F 28% 30.20 in 10.0 mi NNE 6.9 mph 17.3 mph N/A   Clear
5:30 PM 68.0 °F - 35.6 °F 30% 30.21 in 10.0 mi NNE 6.9 mph - N/A   Clear
5:50 PM 68.0 °F - 33.8 °F 28% 30.21 in 10.0 mi North 6.9 mph - N/A   Clear
6:10 PM 68.0 °F - 35.6 °F 30% 30.21 in 10.0 mi North 6.9 mph 16.1 mph N/A   Clear
6:30 PM 68.0 °F - 33.8 °F 28% 30.21 in 10.0 mi NNE 6.9 mph - N/A   Clear
6:50 PM 66.2 °F - 35.6 °F 32% 30.22 in 10.0 mi North 6.9 mph - N/A   Clear
7:10 PM 62.6 °F - 37.4 °F 39% 30.23 in 10.0 mi Calm Calm - N/A   Clear
7:30 PM 59.0 °F - 39.2 °F 48% 30.23 in 10.0 mi Calm Calm - N/A   Clear
7:50 PM 57.2 °F - 41.0 °F 55% 30.24 in 10.0 mi Calm Calm - N/A   Clear
8:10 PM 55.4 °F - 41.0 °F 58% 30.24 in 10.0 mi West 3.5 mph - N/A   Clear
8:30 PM 53.6 °F - 41.0 °F 62% 30.24 in 10.0 mi Calm Calm - N/A   Clear
8:50 PM 53.6 °F - 41.0 °F 62% 30.26 in 10.0 mi West 3.5 mph - N/A   Clear
9:10 PM 50.0 °F - 41.0 °F 71% 30.27 in 10.0 mi West 4.6 mph - N/A   Clear
9:30 PM 50.0 °F - 41.0 °F 71% 30.28 in 10.0 mi Calm Calm - N/A   Clear
9:50 PM 50.0 °F - 41.0 °F 71% 30.29 in 10.0 mi WNW 3.5 mph - N/A   Clear
10:10 PM 48.2 °F - 41.0 °F 76% 30.29 in 10.0 mi West 3.5 mph - N/A   Clear
10:30 PM 48.2 °F - 41.0 °F 76% 30.29 in 10.0 mi WNW 3.5 mph - N/A   Clear
10:50 PM 48.2 °F - 41.0 °F 76% 30.29 in 10.0 mi NW 4.6 mph - N/A   Clear
11:10 PM 48.2 °F - 41.0 °F 76% 30.29 in 10.0 mi NNW 4.6 mph - N/A   Clear
11:30 PM 50.0 °F - 41.0 °F 71% 30.29 in 10.0 mi Calm Calm - N/A   Clear
11:50 PM 50.0 °F - 41.0 °F 71% 30.28 in 10.0 mi Calm Calm - N/A   Clear